| time (UTC) | temp F | wind direction | speed knots | gust knots | rain 1hr in | rain 24hr in | rain mn in | humidity % | barometer mb |
| 20260506131543 | 33 | 163 | 0.0 | 0.0 | 0.00 | 0.00 | 0.00 | 82 | 1017.4 |
| 20260506130042 | 29 | 163 | 0.0 | 0.0 | 0.00 | 0.00 | 0.00 | 87 | 1017.5 |
| 20260506124544 | 29 | 163 | 0.0 | 0.9 | 0.00 | 0.00 | 0.00 | 87 | 1017.4 |
| 20260506123041 | 29 | 152 | 0.0 | 0.0 | 0.00 | 0.00 | 0.00 | 87 | 1017.5 |
| 20260506121547 | 29 | 153 | 0.0 | 0.0 | 0.00 | 0.00 | 0.00 | 87 | 1017.4 |
| 20260506120040 | 29 | 153 | 0.0 | 0.0 | 0.00 | 0.00 | 0.00 | 84 | 1017.3 |
| 20260506114534 | 30 | 153 | 0.0 | 0.0 | 0.00 | 0.00 | 0.00 | 85 | 1017.3 |
| 20260506113033 | 31 | 148 | 0.0 | 0.9 | 0.00 | 0.00 | 0.00 | 82 | 1017.4 |
| 20260506111534 | 30 | 204 | 0.0 | 0.9 | 0.00 | 0.00 | 0.00 | 85 | 1017.5 |
| 20260506110029 | 30 | 117 | 0.0 | 0.9 | 0.00 | 0.00 | 0.00 | 83 | 1017.5 |
| 20260506104527 | 31 | 139 | 0.0 | 0.0 | 0.00 | 0.00 | 0.00 | 83 | 1017.3 |
| 20260506103026 | 31 | 139 | 0.0 | 0.0 | 0.00 | 0.00 | 0.00 | 82 | 1017.2 |
| 20260506101524 | 32 | 111 | 0.0 | 0.9 | 0.00 | 0.00 | 0.00 | 80 | 1017.1 |
| 20260506100021 | 33 | 136 | 0.0 | 0.0 | 0.00 | 0.00 | 0.00 | 78 | 1017.2 |
| 20260506094520 | 33 | 123 | 0.0 | 0.9 | 0.00 | 0.00 | 0.00 | 77 | 1017.2 |
| 20260506093018 | 35 | 219 | 0.0 | 1.7 | 0.00 | 0.00 | 0.00 | 73 | 1017.2 |
| 20260506091515 | 35 | 148 | 0.0 | 0.9 | 0.00 | 0.00 | 0.00 | 74 | 1017.3 |
| 20260506090013 | 36 | 113 | 0.0 | 1.7 | 0.00 | 0.00 | 0.00 | 71 | 1017.3 |
| 20260506084511 | 35 | 85 | 0.0 | 2.6 | 0.00 | 0.00 | 0.00 | 73 | 1017.3 |
| 20260506083015 | 36 | 143 | 0.0 | 1.7 | 0.00 | 0.00 | 0.00 | 71 | 1017.2 |
| 20260506081505 | 37 | 198 | 0.0 | 2.6 | 0.00 | 0.00 | 0.00 | 69 | 1017.2 |
| 20260506073101 | 39 | 219 | 0.9 | 3.5 | 0.00 | 0.00 | 0.00 | 64 | 1017.2 |
| 20260506071558 | 40 | 203 | 0.9 | 3.5 | 0.00 | 0.00 | 0.00 | 62 | 1017.0 |
| 20260506061550 | 42 | 124 | 0.9 | 3.5 | 0.00 | 0.00 | 0.00 | 56 | 1016.8 |
| 20260506050104 | 46 | 121 | 0.0 | 1.7 | 0.00 | 0.00 | 0.00 | 53 | 1016.4 |
| 20260506044544 | 48 | 150 | 0.0 | 2.6 | 0.00 | 0.00 | 0.00 | 46 | 1016.2 |
| 20260506043039 | 50 | 85 | 1.7 | 3.5 | 0.00 | 0.00 | 0.00 | 43 | 1016.1 |
| 20260506041555 | 52 | 76 | 2.6 | 6.1 | 0.00 | 0.00 | 0.00 | 38 | 1016.0 |
| 20260506040039 | 53 | 70 | 1.7 | 11.3 | 0.00 | 0.00 | 0.00 | 38 | 1015.7 |
| 20260506034549 | 54 | 111 | 1.7 | 5.2 | 0.00 | 0.00 | 0.00 | 36 | 1015.3 |
| 20260506033039 | 55 | 106 | 3.5 | 13.0 | 0.00 | 0.00 | 0.00 | 35 | 1015.0 |
| 20260506031535 | 55 | 84 | 5.2 | 9.6 | 0.00 | 0.00 | 0.00 | 34 | 1014.7 |
| 20260506030037 | 56 | 56 | 3.5 | 10.4 | 0.00 | 0.00 | 0.00 | 34 | 1014.2 |
| 20260506024534 | 57 | 39 | 6.1 | 12.2 | 0.00 | 0.00 | 0.00 | 32 | 1013.9 |
| 20260506023033 | 58 | 54 | 7.0 | 18.2 | 0.00 | 0.00 | 0.00 | 31 | 1013.4 |
| 20260506021533 | 60 | 82 | 7.8 | 17.4 | 0.00 | 0.00 | 0.00 | 30 | 1013.2 |
| 20260506020031 | 61 | 54 | 8.7 | 13.9 | 0.00 | 0.00 | 0.00 | 29 | 1012.9 |
| 20260506014531 | 62 | 46 | 10.4 | 18.2 | 0.00 | 0.00 | 0.00 | 29 | 1012.7 |
| 20260506013043 | 64 | 53 | 8.7 | 15.6 | 0.00 | 0.00 | 0.00 | 29 | 1012.5 |
| 20260506011531 | 65 | 86 | 8.7 | 14.8 | 0.00 | 0.00 | 0.00 | 28 | 1012.5 |
| 20260506010032 | 68 | 86 | 4.3 | 7.8 | 0.00 | 0.00 | 0.00 | 23 | 1012.4 |
| 20260506004529 | 68 | 74 | 2.6 | 7.8 | 0.00 | 0.00 | 0.00 | 23 | 1012.4 |
| 20260506003028 | 69 | 118 | 2.6 | 6.1 | 0.00 | 0.00 | 0.00 | 25 | 1012.3 |
| 20260506001527 | 69 | 308 | 0.0 | 4.3 | 0.00 | 0.00 | 0.00 | 21 | 1012.4 |
| 20260506000026 | 70 | 337 | 0.9 | 4.3 | 0.00 | 0.00 | 0.00 | 22 | 1012.5 |
| 20260505234525 | 69 | 303 | 1.7 | 4.3 | 0.00 | 0.00 | 0.00 | 21 | 1012.7 |
| 20260505233027 | 69 | 303 | 0.0 | 4.3 | 0.00 | 0.00 | 0.00 | 22 | 1012.7 |
| 20260505231524 | 69 | 299 | 0.0 | 4.3 | 0.00 | 0.00 | 0.00 | 22 | 1013.0 |
| 20260505230019 | 69 | 132 | 0.0 | 2.6 | 0.00 | 0.00 | 0.00 | 24 | 1013.1 |
| 20260505224517 | 68 | 32 | 1.7 | 7.8 | 0.00 | 0.00 | 0.00 | 22 | 1013.4 |
| 20260505223016 | 68 | 298 | 2.6 | 6.1 | 0.00 | 0.00 | 0.00 | 21 | 1013.4 |
| 20260505221515 | 68 | 333 | 1.7 | 4.3 | 0.00 | 0.00 | 0.00 | 22 | 1013.6 |
| 20260505220028 | 68 | 285 | 0.9 | 7.8 | 0.00 | 0.00 | 0.00 | 23 | 1013.8 |
| 20260505214518 | 68 | 64 | 4.3 | 11.3 | 0.00 | 0.00 | 0.00 | 22 | 1013.9 |
| 20260505213010 | 69 | 340 | 1.7 | 4.3 | 0.00 | 0.00 | 0.00 | 22 | 1014.0 |
| 20260505211511 | 67 | 120 | 1.7 | 5.2 | 0.00 | 0.00 | 0.00 | 22 | 1014.1 |
| 20260505210006 | 68 | 307 | 3.5 | 8.7 | 0.00 | 0.00 | 0.00 | 23 | 1014.0 |
| 20260505204506 | 67 | 154 | 1.7 | 6.1 | 0.00 | 0.00 | 0.00 | 26 | 1014.3 |
| 20260505203002 | 67 | 307 | 4.3 | 9.6 | 0.00 | 0.00 | 0.00 | 23 | 1014.4 |
| 20260505201501 | 66 | 342 | 4.3 | 9.6 | 0.00 | 0.00 | 0.00 | 23 | 1014.5 |
| 20260505200110 | 67 | 338 | 2.6 | 7.0 | 0.00 | 0.00 | 0.00 | 24 | 1014.5 |
| 20260505194557 | 66 | 39 | 0.9 | 6.1 | 0.00 | 0.00 | 0.00 | 25 | 1014.5 |
| 20260505193102 | 64 | 84 | 0.0 | 5.2 | 0.00 | 0.00 | 0.00 | 27 | 1014.7 |
| 20260505191602 | 63 | 149 | 2.6 | 6.1 | 0.00 | 0.00 | 0.00 | 28 | 1014.7 |
| 20260505190053 | 64 | 299 | 0.9 | 4.3 | 0.00 | 0.00 | 0.00 | 28 | 1014.9 |
| 20260505184551 | 63 | 285 | 1.7 | 4.3 | 0.00 | 0.00 | 0.00 | 30 | 1015.0 |
| 20260505183048 | 63 | 307 | 1.7 | 6.1 | 0.00 | 0.00 | 0.00 | 29 | 1015.2 |
| 20260505181555 | 62 | 118 | 1.7 | 7.8 | 0.00 | 0.00 | 0.00 | 34 | 1015.3 |
| 20260505180045 | 62 | 333 | 1.7 | 5.2 | 0.00 | 0.00 | 0.00 | 29 | 1015.6 |
| 20260505174542 | 61 | 226 | 0.9 | 3.5 | 0.00 | 0.00 | 0.00 | 36 | 1015.7 |
| 20260505173040 | 60 | 61 | 0.0 | 1.7 | 0.00 | 0.00 | 0.00 | 34 | 1016.0 |
| 20260505171537 | 58 | 56 | 0.9 | 4.3 | 0.00 | 0.00 | 0.00 | 35 | 1016.1 |
| 20260505170034 | 57 | 281 | 0.0 | 3.5 | 0.00 | 0.00 | 0.00 | 36 | 1016.2 |
| 20260505164530 | 56 | 46 | 0.9 | 3.5 | 0.00 | 0.00 | 0.00 | 41 | 1016.4 |
| 20260505163034 | 55 | 162 | 0.9 | 2.6 | 0.00 | 0.00 | 0.00 | 47 | 1016.6 |
| 20260505161537 | 53 | 9 | 0.9 | 3.5 | 0.00 | 0.00 | 0.00 | 52 | 1016.6 |
| 20260505153018 | 50 | 300 | 0.0 | 0.9 | 0.00 | 0.00 | 0.00 | 57 | 1016.9 |
| 20260505151517 | 49 | 259 | 0.0 | 0.9 | 0.00 | 0.00 | 0.00 | 60 | 1017.0 |